| time (UTC) | temp C | wind direction | speed KPH | gust KPH | rain 1hr cm | rain 24hr cm | rain mn cm | humidity % | barometer mb |
| 20260510153638 | 23 | 50 | 4.8 | 6.4 | 0.00 | 0.38 | 0.00 | 99 | 1000.3 |
| 20260510152154 | 23 | 27 | 3.2 | 6.4 | 0.00 | 0.38 | 0.00 | 99 | 999.3 |
| 20260510151155 | 23 | 64 | 3.2 | 6.4 | 0.00 | 0.38 | 0.00 | 99 | 999.9 |
| 20260510150155 | 23 | 28 | 3.2 | 6.4 | 0.00 | 0.38 | 0.00 | 99 | 999.7 |
| 20260510145141 | 23 | 39 | 3.2 | 6.4 | 0.00 | 0.38 | 0.00 | 99 | 1000.0 |
| 20260510144141 | 23 | 110 | 3.2 | 6.4 | 0.00 | 0.38 | 0.00 | 100 | 1000.1 |
| 20260510143617 | 22 | 26 | 3.2 | 4.8 | 0.00 | 0.38 | 0.00 | 100 | 1000.7 |
| 20260510142632 | 22 | 41 | 3.2 | 4.8 | 0.00 | 0.38 | 0.00 | 100 | 1000.2 |
| 20260510141142 | 22 | 40 | 3.2 | 4.8 | 0.00 | 0.38 | 0.00 | 100 | 1000.9 |
| 20260510140142 | 22 | 1 | 3.2 | 4.8 | 0.00 | 0.38 | 0.00 | 100 | 1000.5 |
| 20260510135143 | 22 | 42 | 1.6 | 4.8 | 0.00 | 0.38 | 0.00 | 100 | 999.1 |
| 20260510134621 | 22 | 343 | 3.2 | 4.8 | 0.00 | 0.38 | 0.00 | 100 | 998.5 |
| 20260510133142 | 22 | 352 | 1.6 | 3.2 | 0.00 | 0.38 | 0.00 | 100 | 998.9 |
| 20260510132605 | 22 | 8 | 3.2 | 4.8 | 0.00 | 0.38 | 0.00 | 100 | 998.3 |
| 20260510131129 | 22 | 345 | 1.6 | 3.2 | 0.00 | 0.38 | 0.00 | 100 | 997.3 |
| 20260510130129 | 22 | 353 | 3.2 | 4.8 | 0.00 | 0.38 | 0.00 | 100 | 996.9 |
| 20260510125129 | 22 | 10 | 3.2 | 6.4 | 0.00 | 0.38 | 0.00 | 100 | 996.9 |
| 20260510124613 | 22 | 359 | 1.6 | 4.8 | 0.00 | 0.38 | 0.00 | 100 | 996.7 |
| 20260510123129 | 22 | 345 | 3.2 | 6.4 | 0.00 | 0.38 | 0.00 | 100 | 996.3 |
| 20260510122113 | 22 | 334 | 1.6 | 4.8 | 0.00 | 0.38 | 0.00 | 100 | 996.2 |
| 20260510121552 | 22 | 1 | 3.2 | 6.4 | 0.00 | 0.38 | 0.00 | 100 | 996.3 |
| 20260510120114 | 22 | 354 | 3.2 | 4.8 | 0.00 | 0.38 | 0.00 | 100 | 995.8 |
| 20260510115554 | 22 | 0 | 1.6 | 4.8 | 0.00 | 0.38 | 0.00 | 100 | 995.5 |
| 20260510114113 | 22 | 355 | 1.6 | 3.2 | 0.00 | 0.38 | 0.00 | 100 | 995.3 |
| 20260510113113 | 22 | 303 | 0.0 | 3.2 | 0.00 | 0.38 | 0.00 | 100 | 995.3 |
| 20260510112558 | 22 | 335 | 1.6 | 3.2 | 0.00 | 0.38 | 0.00 | 100 | 994.9 |
| 20260510111113 | 22 | 313 | 1.6 | 4.8 | 0.00 | 0.38 | 0.00 | 100 | 994.5 |
| 20260510110111 | 21 | 358 | 0.0 | 1.6 | 0.00 | 0.38 | 0.00 | 100 | 993.2 |
| 20260510105543 | 21 | 0 | 0.0 | 1.6 | 0.00 | 0.38 | 0.00 | 100 | 993.3 |
| 20260510104058 | 21 | 0 | 0.0 | 0.0 | 0.00 | 0.38 | 0.00 | 100 | 993.4 |
| 20260510103057 | 21 | 0 | 0.0 | 1.6 | 0.00 | 0.38 | 0.00 | 100 | 993.5 |
| 20260510102058 | 21 | 0 | 0.0 | 1.6 | 0.00 | 0.38 | 0.00 | 100 | 993.0 |
| 20260510101058 | 21 | 328 | 0.0 | 0.0 | 0.00 | 0.38 | 0.00 | 100 | 992.6 |
| 20260510100110 | 21 | 0 | 0.0 | 1.6 | 0.00 | 0.38 | 0.00 | 100 | 993.0 |
| 20260510095058 | 22 | 88 | 0.0 | 3.2 | 0.00 | 0.38 | 0.00 | 100 | 992.7 |
| 20260510094058 | 21 | 0 | 0.0 | 3.2 | 0.00 | 0.38 | 0.00 | 100 | 992.8 |
| 20260510093044 | 21 | 0 | 0.0 | 1.6 | 0.00 | 0.38 | 0.00 | 100 | 993.0 |
| 20260510092045 | 21 | 0 | 0.0 | 0.0 | 0.00 | 0.38 | 0.00 | 100 | 992.9 |
| 20260510091044 | 21 | 0 | 0.0 | 1.6 | 0.00 | 0.38 | 0.00 | 100 | 992.8 |
| 20260510090044 | 21 | 0 | 0.0 | 1.6 | 0.00 | 0.38 | 0.00 | 99 | 992.0 |
| 20260510085044 | 21 | 0 | 0.0 | 1.6 | 0.00 | 0.38 | 0.00 | 99 | 991.5 |
| 20260510084045 | 21 | 0 | 0.0 | 1.6 | 0.00 | 0.38 | 0.00 | 99 | 991.9 |
| 20260510083045 | 22 | 0 | 0.0 | 3.2 | 0.00 | 0.38 | 0.00 | 99 | 991.8 |
| 20260510082044 | 22 | 65 | 1.6 | 3.2 | 0.00 | 0.38 | 0.00 | 99 | 992.2 |
| 20260510081043 | 22 | 0 | 0.0 | 3.2 | 0.00 | 0.38 | 0.00 | 99 | 992.8 |
| 20260510080044 | 21 | 176 | 0.0 | 1.6 | 0.00 | 0.38 | 0.00 | 99 | 992.8 |
| 20260510075044 | 21 | 274 | 0.0 | 4.8 | 0.00 | 0.38 | 0.00 | 99 | 992.5 |
| 20260510074043 | 21 | 54 | 0.0 | 1.6 | 0.00 | 0.38 | 0.00 | 99 | 992.2 |
| 20260510073044 | 21 | 0 | 0.0 | 1.6 | 0.00 | 0.38 | 0.00 | 99 | 992.3 |
| 20260510072043 | 21 | 39 | 0.0 | 1.6 | 0.00 | 0.38 | 0.00 | 99 | 991.9 |
| 20260510071044 | 21 | 0 | 0.0 | 1.6 | 0.00 | 0.38 | 0.00 | 99 | 990.7 |
| 20260510070040 | 21 | 0 | 1.6 | 4.8 | 0.00 | 0.38 | 0.00 | 99 | 991.4 |
| 20260510065041 | 21 | 0 | 0.0 | 1.6 | 0.00 | 0.38 | 0.00 | 99 | 990.9 |
| 20260510064040 | 21 | 0 | 0.0 | 1.6 | 0.00 | 0.38 | 0.00 | 99 | 990.7 |
| 20260510063041 | 21 | 0 | 0.0 | 1.6 | 0.00 | 0.38 | 0.00 | 99 | 991.1 |
| 20260510062525 | 21 | 0 | 0.0 | 3.2 | 0.00 | 0.38 | 0.00 | 99 | 991.2 |
| 20260510061532 | 21 | 0 | 0.0 | 3.2 | 0.00 | 0.38 | 0.00 | 99 | 991.7 |
| 20260510060520 | 21 | 0 | 1.6 | 4.8 | 0.00 | 0.38 | 0.00 | 99 | 992.0 |
| 20260510055039 | 21 | 110 | 1.6 | 6.4 | 0.00 | 0.38 | 0.00 | 99 | 992.3 |
| 20260510054038 | 21 | 170 | 1.6 | 6.4 | 0.00 | 0.38 | 0.00 | 99 | 992.5 |
| 20260510053038 | 21 | 0 | 0.0 | 3.2 | 0.00 | 0.38 | 0.00 | 99 | 992.8 |
| 20260510052525 | 21 | 200 | 1.6 | 3.2 | 0.00 | 0.38 | 0.00 | 99 | 993.2 |
| 20260510051052 | 21 | 87 | 1.6 | 4.8 | 0.00 | 0.38 | 0.00 | 99 | 993.4 |
| 20260510050038 | 21 | 183 | 0.0 | 4.8 | 0.00 | 0.38 | 0.00 | 98 | 993.0 |
| 20260510045039 | 21 | 0 | 0.0 | 1.6 | 0.00 | 0.38 | 0.00 | 98 | 992.8 |
| 20260510043036 | 21 | 0 | 0.0 | 1.6 | 0.00 | 0.38 | 0.00 | 98 | 992.4 |
| 20260510042037 | 21 | 0 | 0.0 | 3.2 | 0.00 | 0.38 | 0.00 | 98 | 992.1 |
| 20260510041037 | 21 | 0 | 0.0 | 1.6 | 0.00 | 0.46 | 0.00 | 98 | 992.2 |
| 20260510040036 | 21 | 11 | 0.0 | 1.6 | 0.00 | 0.48 | 0.00 | 98 | 992.2 |
| 20260510035037 | 21 | 0 | 0.0 | 3.2 | 0.00 | 0.48 | 0.48 | 98 | 992.6 |
| 20260510034037 | 21 | 0 | 0.0 | 3.2 | 0.00 | 0.51 | 0.48 | 98 | 992.8 |
| 20260510033515 | 21 | 143 | 0.0 | 3.2 | 0.00 | 0.61 | 0.48 | 98 | 992.9 |
| 20260510032206 | 21 | 179 | 1.6 | 3.2 | 0.00 | 1.07 | 0.48 | 98 | 993.1 |
| 20260510031021 | 22 | 61 | 0.0 | 3.2 | 0.00 | 1.14 | 0.48 | 98 | 992.8 |
| 20260510030020 | 22 | 159 | 1.6 | 4.8 | 0.00 | 1.27 | 0.48 | 98 | 993.0 |
| 20260510025021 | 22 | 173 | 3.2 | 4.8 | 0.00 | 1.32 | 0.48 | 98 | 993.1 |
| 20260510024020 | 22 | 0 | 0.0 | 1.6 | 0.00 | 1.45 | 0.48 | 98 | 992.5 |
| 20260510023020 | 22 | 354 | 1.6 | 3.2 | 0.00 | 1.45 | 0.48 | 97 | 992.1 |
| 20260510022021 | 22 | 0 | 0.0 | 3.2 | 0.00 | 1.45 | 0.48 | 97 | 992.3 |
| 20260510021021 | 22 | 0 | 0.0 | 1.6 | 0.00 | 1.45 | 0.48 | 97 | 992.3 |
| 20260510020018 | 22 | 63 | 1.6 | 3.2 | 0.00 | 1.45 | 0.48 | 97 | 992.0 |
| 20260510015017 | 22 | 19 | 1.6 | 4.8 | 0.00 | 1.45 | 0.48 | 97 | 991.9 |
| 20260510014016 | 22 | 63 | 1.6 | 3.2 | 0.00 | 1.45 | 0.48 | 97 | 991.9 |
| 20260510012016 | 22 | 0 | 0.0 | 1.6 | 0.00 | 1.45 | 0.48 | 97 | 991.4 |
| 20260510011453 | 22 | 0 | 0.0 | 3.2 | 0.00 | 1.45 | 0.48 | 97 | 991.3 |
| 20260510010016 | 22 | 134 | 1.6 | 3.2 | 0.00 | 1.45 | 0.48 | 96 | 991.6 |
| 20260510005016 | 22 | 0 | 0.0 | 3.2 | 0.00 | 1.45 | 0.48 | 96 | 991.6 |
| 20260510004016 | 22 | 0 | 0.0 | 3.2 | 0.00 | 1.45 | 0.48 | 96 | 991.6 |
| 20260510003017 | 22 | 0 | 0.0 | 3.2 | 0.00 | 1.47 | 0.48 | 96 | 991.6 |
| 20260510002014 | 22 | 329 | 0.0 | 1.6 | 0.00 | 1.73 | 0.48 | 96 | 991.7 |
| 20260510001015 | 22 | 252 | 0.0 | 1.6 | 0.00 | 1.73 | 0.48 | 96 | 991.8 |
| 20260510000455 | 22 | 0 | 0.0 | 1.6 | 0.00 | 1.73 | 0.48 | 96 | 991.7 |
| 20260509235014 | 22 | 0 | 0.0 | 3.2 | 0.00 | 1.73 | 0.48 | 95 | 991.5 |
| 20260509234015 | 22 | 0 | 1.6 | 4.8 | 0.00 | 1.73 | 0.48 | 95 | 991.7 |
| 20260509233012 | 22 | 36 | 3.2 | 4.8 | 0.00 | 1.73 | 0.48 | 95 | 991.6 |
| 20260509232011 | 22 | 26 | 3.2 | 6.4 | 0.00 | 1.73 | 0.48 | 95 | 991.6 |
| 20260509231458 | 22 | 10 | 3.2 | 6.4 | 0.00 | 1.73 | 0.48 | 95 | 991.6 |
| 20260509230011 | 22 | 56 | 3.2 | 4.8 | 0.00 | 1.73 | 0.48 | 95 | 991.7 |
| 20260509225012 | 22 | 38 | 3.2 | 6.4 | 0.00 | 1.73 | 0.48 | 95 | 991.8 |
| 20260509224012 | 22 | 56 | 4.8 | 9.7 | 0.00 | 1.73 | 0.48 | 95 | 991.6 |
| 20260509223012 | 22 | 34 | 3.2 | 8.0 | 0.00 | 1.73 | 0.48 | 95 | 992.1 |
| 20260509222012 | 22 | 18 | 3.2 | 8.0 | 0.00 | 1.73 | 0.48 | 95 | 992.3 |
| 20260509221503 | 22 | 50 | 4.8 | 12.9 | 0.00 | 1.73 | 0.48 | 95 | 992.3 |
| 20260509215009 | 22 | 16 | 6.4 | 14.5 | 0.00 | 1.73 | 0.48 | 95 | 992.0 |
| 20260509214009 | 22 | 25 | 6.4 | 11.3 | 0.00 | 1.73 | 0.48 | 95 | 991.7 |
| 20260509213010 | 22 | 19 | 6.4 | 11.3 | 0.00 | 1.73 | 0.48 | 94 | 992.1 |
| 20260509212010 | 22 | 54 | 4.8 | 9.7 | 0.00 | 1.73 | 0.48 | 94 | 991.7 |
| 20260509211010 | 22 | 10 | 6.4 | 17.7 | 0.00 | 1.73 | 0.46 | 94 | 991.6 |
| 20260509210021 | 22 | 0 | 4.8 | 12.9 | 0.00 | 1.73 | 0.46 | 94 | 991.7 |
| 20260509205009 | 23 | 14 | 4.8 | 12.9 | 0.00 | 1.73 | 0.46 | 94 | 992.1 |
| 20260509204441 | 23 | 12 | 3.2 | 6.4 | 0.00 | 1.73 | 0.46 | 94 | 993.0 |
| 20260509203441 | 23 | 42 | 3.2 | 6.4 | 0.25 | 1.73 | 0.46 | 94 | 993.3 |
| 20260509202009 | 23 | 343 | 1.6 | 6.4 | 0.28 | 1.73 | 0.46 | 94 | 993.3 |
| 20260509201009 | 23 | 3 | 1.6 | 4.8 | 0.33 | 1.70 | 0.46 | 94 | 993.1 |
| 20260509200009 | 23 | 71 | 1.6 | 3.2 | 0.36 | 1.70 | 0.46 | 93 | 992.5 |
| 20260509195009 | 23 | 351 | 3.2 | 8.0 | 0.36 | 1.70 | 0.46 | 92 | 992.0 |
| 20260509194007 | 24 | 55 | 4.8 | 14.5 | 0.36 | 1.70 | 0.46 | 90 | 991.2 |
| 20260509193007 | 25 | 211 | 3.2 | 8.0 | 0.10 | 1.47 | 0.20 | 82 | 991.0 |
| 20260509192005 | 26 | 30 | 1.6 | 4.8 | 0.08 | 1.45 | 0.18 | 80 | 991.1 |
| 20260509191019 | 26 | 273 | 1.6 | 4.8 | 0.00 | 1.37 | 0.10 | 77 | 992.2 |
| 20260509190452 | 26 | 12 | 1.6 | 6.4 | 0.00 | 1.37 | 0.10 | 76 | 991.8 |
| 20260509185034 | 27 | 256 | 1.6 | 4.8 | 0.00 | 1.37 | 0.10 | 74 | 994.3 |
| 20260509184449 | 27 | 278 | 3.2 | 9.7 | 0.00 | 1.37 | 0.10 | 74 | 995.0 |
| 20260509183003 | 27 | 199 | 3.2 | 9.7 | 0.00 | 1.37 | 0.10 | 72 | 998.0 |
| 20260509182449 | 27 | 217 | 1.6 | 4.8 | 0.00 | 1.37 | 0.10 | 71 | 1001.2 |
| 20260509181449 | 27 | 0 | 1.6 | 6.4 | 0.00 | 1.37 | 0.10 | 72 | 1001.3 |
| 20260509180442 | 27 | 48 | 3.2 | 6.4 | 0.00 | 1.37 | 0.10 | 74 | 1002.3 |
| 20260509175000 | 27 | 59 | 3.2 | 8.0 | 0.00 | 1.37 | 0.10 | 73 | 1005.1 |
| 20260509174001 | 27 | 357 | 3.2 | 6.4 | 0.00 | 1.37 | 0.10 | 75 | 1002.2 |
| 20260509173001 | 27 | 6 | 3.2 | 6.4 | 0.00 | 1.37 | 0.10 | 75 | 1001.1 |
| 20260509172445 | 27 | 241 | 1.6 | 4.8 | 0.00 | 1.37 | 0.10 | 75 | 1001.7 |
| 20260509171001 | 27 | 0 | 1.6 | 4.8 | 0.00 | 1.37 | 0.10 | 76 | 1002.6 |
| 20260509165958 | 26 | 263 | 1.6 | 4.8 | 0.00 | 1.37 | 0.10 | 78 | 1003.1 |
| 20260509164958 | 26 | 29 | 3.2 | 6.4 | 0.00 | 1.37 | 0.10 | 79 | 999.9 |
| 20260509163959 | 26 | 120 | 1.6 | 6.4 | 0.00 | 1.37 | 0.10 | 78 | 1001.4 |
| 20260509162959 | 25 | 120 | 3.2 | 8.0 | 0.00 | 1.37 | 0.10 | 80 | 1001.4 |
| 20260509161959 | 25 | 243 | 3.2 | 8.0 | 0.00 | 1.37 | 0.10 | 81 | 1000.3 |
| 20260509160959 | 25 | 322 | 1.6 | 4.8 | 0.00 | 1.37 | 0.10 | 81 | 1001.4 |
| 20260509155959 | 25 | 211 | 1.6 | 4.8 | 0.00 | 1.37 | 0.10 | 82 | 998.3 |
| 20260509154958 | 24 | 87 | 3.2 | 6.4 | 0.00 | 1.37 | 0.10 | 82 | 996.5 |
| 20260509153958 | 25 | 61 | 3.2 | 6.4 | 0.00 | 1.37 | 0.10 | 81 | 996.0 |